Oakland, CA

9:27 PM PST on December 09, 2019 (GMT -0800)
Metro Oakland International

Weather History for KOAK - October, 2019

Change the Weather History Date:

Monday, October 28, 2019

  Actual Average Record
Temperature  
Mean Temperature 59 °F 58 °F  
Max Temperature 71 °F 68 °F 85 °F (1976)
Min Temperature 46 °F 50 °F 40 °F (1975)
Degree Days  
Heating Degree Days 6 7  
Month to date heating degree days 104 130  
Since 1 July heating degree days 134 330  
Cooling Degree Days 0 0  
Month to date cooling degree days 31 12  
Year to date cooling degree days 395 137  
Growing Degree Days 8 (Base 50)    
Moisture  
Dew Point 22 °F    
Average Humidity 35    
Maximum Humidity 56    
Minimum Humidity 13    
Precipitation  
Precipitation 0.00 in 0.06 in 0.72 in (1964)
Month to date precipitation T 0.98  
Year to date precipitation 15.94 14.48  
Sea Level Pressure  
Sea Level Pressure 30.03 in    
Wind  
Wind Speed 7 mph (NW)    
Max Wind Speed 21 mph    
Max Gust Speed 31 mph    
Visibility 10 miles    
Events      
T = Trace of Precipitation, MM = Missing Value Source: NWS Daily Summary

Daily Weather History Graph

Daily Weather History Graph

Search for Another Location

Airport or City:

Astronomy

Oct. 28, 2019 Rise Set
Actual Time 7:29 AM PDT 6:14 PM PDT
Civil Twilight 7:02 AM PDT 6:41 PM PDT
Nautical Twilight 6:32 AM PDT 7:12 PM PDT
Astronomical Twilight 6:01 AM PDT 7:43 PM PDT
Moon 7:58 AM PDT (10/28) 7:03 PM PDT (10/28)
Length of Visible Light 11h 38m
Length of Day
10h 45m
New Moon, 1% of the Moon is Illuminated
Oct 28
New Moon
Nov 4
First Quarter
Nov 12
Full
Nov 19
Last Quarter
Nov 26
New

Hourly Weather History & Observations

Time (PDT) Temp. Dew Point Humidity Pressure Visibility Wind Dir Wind Speed Gust Speed Precip Events Conditions
12:53 AM 62.6 °F 10.4 °F 13% 30.01 in 10.0 mi North 6.9 mph 18.4 mph N/A   Partly Cloudy
1:53 AM 60.8 °F 12.2 °F 15% 30.01 in 10.0 mi NNE 18.4 mph 31.1 mph N/A   Partly Cloudy
2:53 AM 60.8 °F 12.2 °F 15% 30.04 in 10.0 mi North 6.9 mph - N/A   Partly Cloudy
3:53 AM 55.0 °F 12.0 °F 18% 30.03 in 10.0 mi Calm Calm - N/A   Clear
4:53 AM 54.0 °F 10.0 °F 17% 30.03 in 10.0 mi ENE 5.8 mph - N/A   Clear
5:53 AM 53.1 °F 18.0 °F 25% 30.04 in 10.0 mi SE 8.1 mph - N/A   Clear
6:53 AM 51.8 °F 17.6 °F 26% 30.05 in 10.0 mi SE 8.1 mph - N/A   Partly Cloudy
7:53 AM 51.8 °F 23.0 °F 33% 30.06 in 10.0 mi SE 8.1 mph - N/A   Scattered Clouds
8:53 AM 57.0 °F 16.0 °F 20% 30.09 in 10.0 mi SE 6.9 mph - N/A   Partly Cloudy
9:53 AM 60.8 °F 17.6 °F 19% 30.10 in 10.0 mi South 6.9 mph - N/A   Partly Cloudy
10:53 AM 64.4 °F 21.2 °F 19% 30.09 in 10.0 mi Variable 5.8 mph - N/A   Partly Cloudy
11:53 AM 66.2 °F 19.4 °F 17% 30.09 in 10.0 mi WSW 5.8 mph - N/A   Partly Cloudy
12:53 PM 64.9 °F 27.0 °F 24% 30.06 in 10.0 mi SW 8.1 mph - N/A   Partly Cloudy
1:53 PM 66.2 °F 28.4 °F 24% 30.04 in 10.0 mi WNW 9.2 mph - N/A   Partly Cloudy
2:53 PM 69.8 °F 21.2 °F 16% 30.02 in 10.0 mi WNW 10.4 mph - N/A   Partly Cloudy
3:53 PM 69.8 °F 21.2 °F 16% 30.00 in 10.0 mi WNW 9.2 mph - N/A   Partly Cloudy
4:53 PM 69.8 °F 23.0 °F 17% 30.00 in 10.0 mi WNW 9.2 mph - N/A   Partly Cloudy
5:53 PM 64.4 °F 35.6 °F 34% 30.00 in 10.0 mi WNW 13.8 mph - N/A   Partly Cloudy
6:53 PM 61.0 °F 26.1 °F 26% 30.00 in 10.0 mi NW 11.5 mph - N/A   Partly Cloudy
7:53 PM 60.1 °F 30.9 °F 33% 30.01 in 10.0 mi NW 6.9 mph - N/A   Partly Cloudy
8:53 PM 57.0 °F 28.9 °F 34% 30.00 in 10.0 mi North 3.5 mph - N/A   Partly Cloudy
9:53 PM 51.8 °F 33.8 °F 50% 30.01 in 10.0 mi Calm Calm - N/A   Partly Cloudy
10:53 PM 48.2 °F 33.8 °F 58% 30.02 in 10.0 mi Calm Calm - N/A   Partly Cloudy
11:53 PM 50.0 °F 30.2 °F 47% 30.00 in 10.0 mi ESE 6.9 mph - N/A   Partly Cloudy